Krabi, Thailand

2:27 PM +07 on May 21, 2018 (GMT +0700)
Krabi

Weather History for VTSG - March, 2014

Change the Weather History Date:

Sunday, March 30, 2014

  Actual Average (VTSP) Record (VTSP)
Temperature  
Mean Temperature 86 °F -  
Max Temperature 96 °F 92 °F 100 °F (1997)
Min Temperature 75 °F 77 °F 72 °F (2014)
Cooling Degree Days 20    
Growing Degree Days 36 (Base 50)    
Moisture  
Dew Point 74 °F    
Average Humidity 69    
Maximum Humidity 94    
Minimum Humidity 39    
Precipitation  
Precipitation 0.00 in - - ()
Sea Level Pressure  
Sea Level Pressure 29.78 in    
Wind  
Wind Speed 4 mph ()    
Max Wind Speed 13 mph    
Max Gust Speed -    
Visibility 5.7 miles    
Events      
Averages and records for this station are not official NWS values.
T = Trace of Precipitation, MM = Missing Value Source: Averaged Metar Reports

Daily Weather History Graph

Daily Weather History Graph

Search for Another Location

Airport or City:

Astronomy

Mar. 30, 2014 Rise Set
Actual Time 6:23 AM +07 6:34 PM +07
Civil Twilight 6:02 AM +07 6:55 PM +07
Nautical Twilight 5:38 AM +07 7:19 PM +07
Astronomical Twilight 5:13 AM +07 7:43 PM +07
Moon 5:43 AM +07 (3/30) 6:11 PM +07 (3/30)
Length of Visible Light 12h 52m
Length of Day
12h 10m
Waning Crescent, 0% of the Moon is Illuminated
Mar 30
Waning Crescent
Mar 31
New
Apr 7
First Quarter
Apr 15
Full
Apr 22
Last Quarter

Hourly Weather History & Observations

Time (+07) Temp. Heat Index Dew Point Humidity Pressure Visibility Wind Dir Wind Speed Gust Speed Precip Events Conditions
12:00 AM 75.2 °F - 73.4 °F 94% 29.83 in 4.3 mi Variable 2.3 mph - N/A   Scattered Clouds
3:00 AM 77.0 °F - 75.2 °F 94% 29.80 in 4.3 mi Variable 2.3 mph - N/A   Scattered Clouds
6:00 AM 75.2 °F - 73.4 °F 94% 29.80 in 3.7 mi NE 3.5 mph - N/A   Unknown
7:00 AM 75.2 °F - 73.4 °F 94% 29.80 in 3.1 mi Variable 2.3 mph - N/A   Mist
8:00 AM 78.8 °F - 77.0 °F 94% 29.83 in - Variable 2.3 mph - N/A   Clear
9:00 AM 86.0 °F 95.1 °F 75.2 °F 70% 29.83 in 6.2 mi NE 3.5 mph - N/A   Partly Cloudy
10:00 AM 89.6 °F 98.2 °F 73.4 °F 59% 29.86 in 6.2 mi Variable 2.3 mph - N/A   Scattered Clouds
11:00 AM 89.6 °F 98.2 °F 73.4 °F 59% 29.86 in 6.2 mi NE 4.6 mph - N/A   Scattered Clouds
12:00 PM 93.2 °F 100.5 °F 71.6 °F 49% 29.80 in 6.2 mi ENE 6.9 mph - N/A   Scattered Clouds
1:00 PM 96.8 °F 101.8 °F 68.0 °F 39% 29.77 in 6.2 mi WSW 10.4 mph - N/A   Scattered Clouds
2:00 PM 96.8 °F 105.1 °F 71.6 °F 44% 29.74 in 6.2 mi SSW 11.5 mph - N/A   Scattered Clouds
3:00 PM 95.0 °F 104.5 °F 73.4 °F 49% 29.71 in 6.2 mi SW 10.4 mph - N/A   Scattered Clouds
4:00 PM 93.2 °F 102.4 °F 73.4 °F 52% 29.68 in 6.2 mi SSW 12.7 mph - N/A   Scattered Clouds
5:00 PM 91.4 °F 100.1 °F 73.4 °F 55% 29.68 in 6.2 mi SW 10.4 mph - N/A   Partly Cloudy
6:00 PM 87.8 °F 95.6 °F 73.4 °F 62% 29.71 in 6.2 mi SSW 8.1 mph - N/A   Partly Cloudy
7:00 PM 86.0 °F 95.1 °F 75.2 °F 70% 29.71 in 6.2 mi SSW 5.8 mph - N/A   Partly Cloudy
8:00 PM 84.2 °F 92.3 °F 75.2 °F 74% 29.74 in 5.6 mi SSW 3.5 mph - N/A   Partly Cloudy
9:00 PM 84.2 °F 92.3 °F 75.2 °F 74% 29.80 in 6.2 mi Variable 2.3 mph - N/A   Scattered Clouds
10:00 PM 84.2 °F 92.3 °F 75.2 °F 74% 29.80 in 6.2 mi Calm Calm - N/A   Scattered Clouds
11:00 PM 82.4 °F 90.9 °F 77.0 °F 84% 29.83 in 6.2 mi Variable 2.3 mph - N/A   Scattered Clouds